Location: *
(32.8667°N, 13.1833°E)
Time: 15:36:20
(UTC+00:00)

Cosmos 2333 Rocket - Pass Details

Date: 18 July 2019
Orbit: 842 x 860 km, 70.8° (Epoch: 21 August)

Event Time Altitude Azimuth Distance (km) Brightness Sun altitude
Exits shadow 19:57:41 13° 76° (ENE) 2,269 4.1 -18.7°
Drops below altitude 10° 19:58:53 10° 65° (ENE) 2,479 4.4 -18.9°
Sets 20:02:22 0° 43° (NE) 3,415 5.4 -19.4°
